Terminal Aerodrome Forecast
Issued by NWS

Home | Current Version | Previous Version | Text Only | Print | Product List | Glossary Off
Versions: 1 2 3 4 5 6 7 8 9 10 11 12 13 14 15 16 17 18 19 20 21 22 23 24 25 26 27 28 29 30 31 32 33 34 35

000
FTUS43 KDDC 300133 AAB
TAFGCK
TAF AMD
KGCK 300133Z 3002/3024 35018G25KT P6SM SCT060
     FM300500 36013G19KT P6SM OVC020
     FM301500 02012KT P6SM SCT200=

USA.gov is the U.S. government's official web portal to all federal, state and local government web resources and services.